OpenBCM V1.13 (Linux)

Packet Radio Mailbox

DB0FHN

[JN59NK Nuernberg]

 Login: GUEST





  
I6KZR  > KEPLER   12.03.03 23:34l 317 Lines 15752 Bytes #999 (0) @ WW
BID : 28868_IK6WID
Read: DB0FHN GUEST
Subj: 2L Keplerian Elements #071
Path: DB0FHN<DB0RGB<OK0PPL<RZ6HXA<SP7MGD<IK6PYS<IW6CBN<I6ZLO<IK6WID
Sent: 030312/2028Z @:IK6WID.#AP.IMAR.ITA.EU #:28868 [MONTE URANO]  FBB7.00i
From: I6KZR@IK6WID.#AP.IMAR.ITA.EU
To  : KEPLER@WW


OSCAR 7
1 07530U 74089B   03070.68082081 -.00000029  00000-0  10000-3 0  1556
2 07530 101.7568 118.2666 0012254  37.4689 322.7232 12.53564773295837
GOES 2
1 10061U 77048A   03062.76944659 -.00000220  00000-0  00000+0 0  1069
2 10061  14.1377  13.3235 0012624 200.8418 159.1157  0.99396945 38967
GOES 3
1 10953U 78062A   03068.88005910 -.00000095  00000-0  00000+0 0  9487
2 10953  13.4191  17.0853 0005985 344.3801  15.6077  1.00279693 43698
GOES 6
1 14050U 83041A   03063.00530959 +.00000023 +00000-0 +10000-3 0 04285
2 14050 010.4192 035.4742 0004593 345.1505 014.8975 01.00306906130775
OSCAR 10
1 14129U 83058B   03070.29344336 -.00000262  00000-0  10000-3 0  9204
2 14129  26.0068 160.8789 6019087 334.5034   5.2611  2.05868884120493
OSCAR 11 (UoSAT 2)
1 14781U 84021B   03071.20715461  .00002242  00000-0  31733-3 0   938
2 14781  98.1191  45.3011 0009704 135.0617 225.1382 14.78067811 19432
NOAA 10
1 16969U 86073A   03071.56397398  .00000266  00000-0  12751-3 0  6930
2 16969  98.7325  65.6330 0013278  26.2320 333.9530 14.27074138857043
GOES 7
1 17561U 87022A   03070.28471296  .00000045  00000-0  10000-3 0  8844
2 17561   7.6448  55.4202 0005223 271.0854 124.5493  1.00260251 41952
COSMOS 1861
1 18129U 87054A   03071.23196147  .00000094  00000-0  86180-4 0  2161
2 18129  82.9260 130.5438 0011567 158.5392 201.6245 13.72703537787489
EUTELSAT 1-F4 (ECS 4)
1 18351U 87078B   03070.22199660 -.00000219  00000-0  00000+0 0   468
2 18351   7.2377  58.5429 0006925 201.1828 158.9060  0.98690983 42886
NOAA 11
1 19531U 88089A   03071.50992161  .00000235  00000-0  14544-3 0  5319
2 19531  98.8970 152.8155 0012152 137.4100 222.8018 14.14548885745902
ASTRA 1A
1 19688U 88109B   03071.15382524  .00000037  00000-0  10000-3 0  5865
2 19688   1.4443  94.4753 0004515 244.1073 251.3872  1.00274260 32418
OSCAR 14 (UOSAT 3)
1 20437U 90005B   03070.54158277  .00000194  00000-0  89007-4 0  1836
2 20437  98.2688 113.1495 0011168 134.9765 225.2331 14.31245455685499
OSCAR 15 (UOSAT 4)
1 20438U 90005C   03069.59697638 +.00000130 +00000-0 +65684-4 0 07896
2 20438 098.2451 101.2853 0010161 148.5624 211.6156 14.30203696685024
OSCAR 16 (PACSAT)
1 20439U 90005D   03069.71426060 +.00000231 +00000-0 +10233-3 0 08634
2 20439 098.3126 124.1626 0011308 144.6831 215.5105 14.31480676685414
OSCAR 17 (DOVE)
1 20440U 90005E   03069.76914191 +.00000281 +00000-0 +12085-3 0 07459
2 20440 098.3350 128.1565 0011187 142.9412 217.2546 14.31759484685494
OSCAR 18 (WEBERSAT)
1 20441U 90005F   03070.88210581  .00000251  00000-0  10972-3 0   315
2 20441  98.3301 128.4206 0012126 141.1553 219.0504 14.31562775685632
OSCAR 19 (LUSAT)
1 20442U 90005G   03070.71832415  .00000255  00000-0  11115-3 0  9823
2 20442  98.3442 131.3267 0012047 140.3458 219.8617 14.31726057685667
JAS 1B (FUJI 2)
1 20480U 90013C   03069.97046337 -.00000047 +00000-0 -26090-4 0 04690
2 20480 099.0493 028.8800 0540256 317.7091 038.3515 12.83330385613131
HST
1 20580U 90037B   03071.01331019  .00003229  00000-0  25422-3 0  3553
2 20580  28.4666 258.7565 0004468 140.5045 315.6626 14.97925238505850
EUTELSAT 2-F1
1 20777U 90079B   03070.71350979 -.00000096  00000-0  10000-3 0   451
2 20777   3.5532  84.3518 0003463 325.5768  91.8604  1.00273178 26313
FENGYUN 1B
1 20788U 90081A   03071.15544227  .00000515  00000-0  36514-3 0  9010
2 20788  99.0300  53.1291 0016258 167.4764 192.6809 14.02151398640566
EUTELSAT 2-F2
1 21056U 91003B   03068.64941512  .00000124  00000-0  10000-3 0  6253
2 21056   2.7779  87.7074 0003964 293.4680  67.9879  1.00275756 32076
INFORMATOR 1
1 21087U 91006A   03069.71654104 +.00000087 +00000-0 +74828-4 0 06197
2 21087 082.9425 302.4888 0034179 192.0572 167.9766 13.74928986607656
COSMOS 2123
1 21089U 91007A   03069.77900597  .00000078  00000-0  67120-4 0  4966
2 21089  82.9248 166.3898 0027662 229.3592 130.5157 13.74406480606563
ASTRA 1B
1 21139U 91015A   03064.00000000  .00000111  00000-0  10000-3 0  1635
2 21139   0.0122 319.8851 0002995  65.1991 156.4174  1.00273184 32339
METEOSAT 5 (MOP 2)
1 21140U 91015B   03069.70080466  .00000021  00000-0  10000-3 0  7527
2 21140   5.6758  69.8076 0000693 346.4195  67.1357  1.00278885 46252
NOAA 12
1 21263U 91032A   03071.52986159  .00000434  00000-0  20335-3 0    05
2 21263  98.6292  60.7916 0012467 322.2747  37.7557 14.25098112614343
OSCAR 22 (UoSAT 5)
1 21575U 91050B   03070.92163613  .00000480  00000-0  16800-3 0  7466
2 21575  98.1433  61.9698 0008540  69.4224 290.7883 14.39171162611351
METEOR 3-5
1 21655U 91056A   03069.95856263 +.00000051 +00000-0 +10000-3 0 05257
2 21655 082.5565 024.4543 0013990 143.0235 217.1855 13.16981260556163
UARS
1 21701U 91063B   03070.71517001  .00001413  00000-0  12326-3 0  8447
2 21701  56.9820 306.4613 0003967 103.8872 256.2589 15.02910498628899
EUTELSAT 2-F3
1 21803U 91083A   03069.80642010  .00000133  00000-0  10000-3 0  5294
2 21803   2.6482  88.8915 0003905 284.7114 106.4354  1.00275179 37208
INMARSAT 2-F3
1 21814U 91084B   03070.36788914  .00000114  00000-0  10000-3 0  6294
2 21814   1.7853  58.9468 0001269 241.9412 218.2147  1.00275707 41103
INMARSAT 2-F4
1 21940U 92021B   03069.61309144 -.00000348  00000-0  10000-3 0  5778
2 21940   2.3988  19.6920 0001873 327.3238 150.4017  1.00263813 39882
EUTELSAT 2-F4
1 22028U 92041B   03066.69672885 -.00000099 +00000-0 +10000-3 0 03364
2 22028 001.7587 092.2084 0006263 238.7918 072.4925 01.00271519031946
OSCAR 23 (KITSAT 1)
1 22077U 92052B   03069.62548051 -.00000037 +00000-0 +10000-3 0 01622
2 22077 066.0862 083.7274 0015752 268.6654 091.2560 12.86409260496882
ASTRA 1C
1 22653U 93031A   03064.00000000  .00000111  00000-0  10000-3 0  7903
2 22653   0.0122 319.8851 0002995  65.1991 156.4044  1.00273184 31033
METEOR 2-21
1 22782U 93055A   03071.08574461  .00000096  00000-0  73889-4 0  5393
2 22782  82.5508 197.8310 0021064 286.8111  73.0750 13.83533210481060
KITSAT B
1 22825U 93061C   03071.52935753  .00000202  00000-0  96209-4 0  5066
2 22825  98.2722 100.1062 0008191 187.6667 172.4395 14.28951708493014
POSAT 1
1 22826U 93061D   03071.13614150  .00000209  00000-0  98481-4 0  3215
2 22826  98.2725 100.8559 0008383 190.2701 169.8311 14.29174970493004
ITAMSAT
1 22828U 93061F   03071.11132554  .00000194  00000-0  91985-4 0  4450
2 22828  98.2705 101.0992 0009680 168.6396 191.5002 14.29515857461207
EYESAT A
1 22829U 93061G   03071.11656987  .00000300  00000-0  13286-3 0  4717
2 22829  98.2714 101.7203 0009551 169.1904 190.9477 14.29780143493136
METEOSAT 6
1 22912U 93073B   03069.91936344  .00000065  00000-0  00000+0 0  7184
2 22912   2.7273  82.4327 0002121 182.6601 243.3018  1.00271810 32506
GOES 8
1 23051U 94022A   03069.82715425 -.00000247  00000-0  00000+0 0  6417
2 23051   0.3445 101.4410 0002175 294.8229 354.9646  1.00270625 40016
ASTRA 1D
1 23331U 94070A   03064.83099755  .00000134  00000-0  10000-3 0  8239
2 23331   0.0964 257.5513 0003630  95.8331 133.0925  1.00276202 31021
RADIO ROSTO
1 23439U 94085A   03069.78146711 -.00000040 +00000-0 +69702-4 0 06923
2 23439 064.8187 008.7965 0146500 111.1602 250.5048 11.27547803337870
NOAA 14
1 23455U 94089A   03071.56233764  .00000256  00000-0  16134-3 0  5522
2 23455  99.1863  90.7089 0009727 163.7907 196.3577 14.13306813422587
HIMAWARI 5 (GMS 5)
1 23522U 95011B   03069.14188381 -.00000276  00000-0  00000+0 0  1382
2 23522   1.8152  83.5623 0000124   7.7519 267.4402  1.00270583 29086
HOT BIRD 1
1 23537U 95016B   03055.93642088  .00000074  00000-0  10000-3 0  5388
2 23537   0.0930 158.4148 0007489 128.2319 217.9136  1.00274434 29037
GOES 9
1 23581U 95025A   03070.35775240  .00000071  00000-0  00000+0 0  5558
2 23581   0.2074 276.6756 0011930 247.0039 321.3806  1.00067617 28575
INMARSAT 3-F1
1 23839U 96020A   03070.68446053  .00000019  00000-0  10000-3 0  8856
2 23839   0.0530 340.3178 0004275 359.1453 139.7498  1.00273932 25420
ASTRA 1F
1 23842U 96021A   03064.00000000  .00000111  00000-0  10000-3 0  5623
2 23842   0.0122 319.8851 0002995  65.1991 156.4263  1.00273184 25265
JAS 2
1 24278U 96046B   03070.91563617  .00000102  00000-0  13822-3 0  5668
2 24278  98.5409 219.2418 0350835 161.0334 200.4256 13.52875697324190
UNAMSAT
1 24305U 96052B   03071.05185274  .00000205  00000-0  20364-3 0  6698
2 24305  82.9334 246.8955 0031406 141.0218 219.3203 13.73453849326430
INMARSAT 3-F2
1 24307U 96053A   03069.97041093 -.00000120  00000-0  00000+0 0   938
2 24307   0.0498 343.6169 0004893  10.7098 147.7534  1.00272567 23826
HOT BIRD 2
1 24665U 96067A   03054.87288413  .00000076  00000-0  10000-3 0  3445
2 24665   0.0674 252.7220 0007661  70.4027 157.3662  1.00270188 23318
INMARSAT 3-F3
1 24674U 96070A   03070.40495135  .00000042  00000-0  10000-3 0    43
2 24674   0.0473 336.5224 0003883   7.0420 148.9461  1.00270511 22799
GOES 10
1 24786U 97019A   03070.71437676  .00000093  00000-0  00000+0 0  5834
2 24786   0.2096 105.4825 0003386 283.6890 261.3985  1.00267959 21542
INMARSAT 3-F4
1 24819U 97027A   03071.24780115 -.00000284  00000-0  10000-3 0  8952
2 24819   0.0463 307.2166 0004706  56.6308 200.8144  1.00268879 21226
FENGYUN 2A
1 24834U 97029A   03070.71413314 -.00000195  00000-0  00000+0 0  9784
2 24834   2.6243  88.2358 0001100 245.8756 178.2023  1.00277746 21058
HOT BIRD 3
1 24931U 97049A   03054.87288413  .00000075  00000-0  10000-3 0  4284
2 24931   0.1004 298.5607 0010424  36.2408 145.6862  1.00270404 20133
METEOSAT 7
1 24932U 97049B   03071.14954284 -.00000002  00000-0  00000+0 0  2600
2 24932   0.2631  74.3136 0001222 233.5117 275.5865  1.00263784 20233
ASTRA 1G
1 25071U 97076A   03064.00000000  .00000111  00000-0  10000-3 0  3943
2 25071   0.0122 319.8851 0002995  65.1991 156.4370  1.00273184 19285
